Weather History for Hamilton, OH

Change the Weather History Date:

Thursday, March 21, 2013

  Actual Average (KCVG) Record (KCVG)
Temperature  
Mean Temperature 26 °F 45 °F  
Max Temperature 33 °F 55 °F 83 °F (2012)
Min Temperature 21 °F 36 °F 12 °F (1885)
Degree Days  
Heating Degree Days 38 20  
Month to date heating degree days 488  
Since 1 July heating degree days 4315  
Cooling Degree Days 0 0  
Month to date cooling degree days 0  
Year to date cooling degree days 0  
Moisture  
Dew Point 13 °F    
Average Humidity 57    
Maximum Humidity 72    
Minimum Humidity 44    
Precipitation  
Precipitation 0.00 in 0.14 in 1.31 in (1962)
Month to date precipitation 2.55  
Year to date precipitation 8.36  
Snow  
Snow 0.00 in 0.10 in 4.20 in (2006)
Month to date snowfall 2.4  
Since 1 July snowfall 21.0  
Snow Depth -    
Sea Level Pressure  
Sea Level Pressure 30.04 in    
Wind  
Wind Speed 8 mph (WNW)    
Max Wind Speed 12 mph    
Max Gust Speed 20 mph    
Visibility 10 miles    
Events      
T = Trace of Precipitation, MM = Missing Value Source: NWS Daily Summary

Daily Weather History Graph

Daily Weather History Graph

Search for Another Location

Airport:

Trip Planner

Search our weather history database for the weather conditions in past years. The results will help you decide how hot, cold, wet, or windy it might be!

Date:

Astronomy

Mar. 21, 2013 Rise Set
Actual Time 7:39 AM EDT 7:51 PM EDT
Civil Twilight 7:12 AM EDT 8:18 PM EDT
Nautical Twilight 6:41 AM EDT 8:49 PM EDT
Astronomical Twilight 6:09 AM EDT 9:21 PM EDT
Moon 2:21 PM EDT (3/21) 3:59 AM EDT (3/21)
Length of Visible Light 13h 05m
Length of Day
12h 11m
Waxing Gibbous, 68% of the Moon is Illuminated
Mar 21
Waxing Gibbous
Mar 27
Full
Apr 3
Last Quarter
Apr 10
New
Apr 18
First Quarter

Hourly Weather History & Observations

Time (EDT) Temp. Windchill Dew Point Humidity Pressure Visibility Wind Dir Wind Speed Gust Speed Precip Events Conditions
12:53 AM 26.1 °F 17.6 °F 10.0 °F 51% 30.03 in 10.0 mi WNW 8.1 mph - N/A   Overcast
2:53 AM 24.1 °F 15.2 °F 12.9 °F 62% 30.03 in 10.0 mi WNW 8.1 mph 18.4 mph 0.00 in   Overcast
3:53 AM 21.9 °F 12.5 °F 12.0 °F 66% 30.01 in 10.0 mi WNW 8.1 mph - N/A   Partly Cloudy
4:53 AM 21.9 °F 15.7 °F 12.0 °F 66% 29.99 in 10.0 mi West 4.6 mph - N/A   Mostly Cloudy
5:53 AM 23.0 °F 13.9 °F 12.0 °F 63% 29.99 in 10.0 mi WNW 8.1 mph - N/A   Overcast
6:53 AM 21.0 °F 10.6 °F 12.9 °F 71% 30.00 in 10.0 mi NW 9.2 mph - 0.00 in   Scattered Clouds
7:53 AM 21.0 °F 9.9 °F 12.9 °F 71% 30.01 in 10.0 mi WNW 10.4 mph - N/A   Mostly Cloudy
8:53 AM 21.9 °F 11.7 °F 12.9 °F 68% 30.03 in 10.0 mi NW 9.2 mph - 0.00 in   Overcast
9:53 AM 23.0 °F 13.1 °F 12.9 °F 65% 30.04 in 10.0 mi NNW 9.2 mph - N/A   Scattered Clouds
10:05 AM 23.0 °F 11.7 °F 12.2 °F 63% 30.02 in 10.0 mi NW 11.5 mph - N/A   Mostly Cloudy
10:53 AM 24.1 °F 14.4 °F 10.9 °F 57% 30.06 in 10.0 mi WNW 9.2 mph - N/A   Mostly Cloudy
11:53 AM 28.0 °F 19.3 °F 10.0 °F 47% 30.05 in 10.0 mi WNW 9.2 mph - N/A   Scattered Clouds
12:53 PM 28.9 °F 21.9 °F 10.0 °F 45% 30.06 in 10.0 mi West 6.9 mph 19.6 mph N/A   Scattered Clouds
1:53 PM 30.0 °F 21.1 °F 12.0 °F 47% 30.06 in 10.0 mi NNW 10.4 mph - N/A   Overcast
2:53 PM 30.0 °F 21.1 °F 12.0 °F 47% 30.05 in 10.0 mi NNW 10.4 mph - N/A   Overcast
3:53 PM 32.0 °F 25.6 °F 14.0 °F 48% 30.04 in 10.0 mi Variable 6.9 mph - N/A   Overcast
4:53 PM 30.9 °F 22.2 °F 12.9 °F 47% 30.04 in 10.0 mi WNW 10.4 mph - N/A   Overcast
5:53 PM 30.9 °F 24.3 °F 12.9 °F 47% 30.04 in 10.0 mi West 6.9 mph - N/A   Overcast
6:53 PM 32.0 °F 24.8 °F 12.0 °F 44% 30.04 in 10.0 mi WNW 8.1 mph - N/A   Overcast
7:53 PM 30.9 °F 24.3 °F 12.9 °F 47% 30.05 in 10.0 mi NW 6.9 mph - N/A   Overcast
8:53 PM 30.0 °F - 14.0 °F 51% 30.06 in 10.0 mi Calm Calm - N/A   Overcast
9:53 PM 30.0 °F 26.5 °F 15.1 °F 54% 30.06 in 10.0 mi SW 3.5 mph - N/A   Overcast
10:53 PM 28.0 °F 24.2 °F 16.0 °F 61% 30.07 in 10.0 mi SW 3.5 mph - N/A   Partly Cloudy
11:53 PM 21.9 °F - 14.0 °F 72% 30.07 in 10.0 mi Calm Calm - N/A   Clear